Darstellungsparameter: Aktuell verwendete Einstellungen:
Skalierung der Graphiken ... ?
xyx+y,   Skalierungsfaktor:      Skalierung: Modus: x, Faktor: 1
Darstellungszeitraum ... ?
Vom - - bis: - -   Zeitraum: 13.04.2021 - 13.04.2021
Min/Max/Avg-Anzeige ... ?
Zeige MMA aktuell
Zeige MMA Monat
Zeige MMA alles
Zeige --A aktuell
Zeige --A Monat
Zeige --A alles
Keine MMA-Anzeige
MMA:
Minimum Maximum Average (ber die Originaldaten)
MMA-Basis: 13.04.2021 - 13.04.2021
Quicknavigation für Darstellung... ?
Tage:      1T, 2T, 3T, 5T -1T -2T -3T -5T +1T +2T +3T +5T
Wochen: 1W, 2W, 3W -1W -2W -3W +1W +2W +3W
Monate: 1M, 3M, 6M -1M -3M -6M +1M +3M +6M
Jahre:    1J, 3J, 5J, 10J -1J -3J -5J -10J +1J +3J +5J +10J
Nutze für die Darstellung ... ?
Originaldaten oder Mittelwerte auf ...
Stundenbasis Tagesbasis Wochenbasis
Monatsbasis Jahresbasis      Datenbasis: Original-Daten
Darstellen als:
Statistik (Auto) Statistik J:M      Darstellung:

Der gewünschte Datumsbereich war nicht gültig/verfügbar und wurde korrigiert....
Das angegebene Enddatum (15.08.2029 23:59:59) liegt in der Zukunft.
Das angegebene Startdatum (16.05.2029 00:00:00) liegt in der Zukunft.


Zur Graphik,    zurück zur Übersicht aller Sensoren.
 
Tabellarische Datenbersicht: ?
 
Sensor: Nr:Datum:Temp:Feuchte:Taupunkt:
Aussen-T/F 1 13-04-2021 02:00:00 -0.3 C 94 % -1.15 C
2 13-04-2021 02:05:00 -0.4 C 94 % -1.25 C
3 13-04-2021 02:10:00 -0.4 C 94 % -1.25 C
4 13-04-2021 02:15:00 -0.4 C 94 % -1.25 C
5 13-04-2021 02:20:00 -0.4 C 94 % -1.25 C
6 13-04-2021 02:25:00 -0.5 C 94 % -1.34 C
7 13-04-2021 02:30:00 -0.5 C 94 % -1.34 C
8 13-04-2021 02:35:00 -0.6 C 94 % -1.44 C
9 13-04-2021 02:40:00 -0.6 C 94 % -1.44 C
10 13-04-2021 02:45:00 -0.7 C 94 % -1.54 C
11 13-04-2021 02:50:00 -0.7 C 94 % -1.54 C
12 13-04-2021 02:55:00 -0.7 C 94 % -1.54 C
13 13-04-2021 03:00:00 -0.8 C 94 % -1.64 C
14 13-04-2021 03:05:00 -0.8 C 94 % -1.64 C
15 13-04-2021 03:10:00 -0.9 C 94 % -1.74 C
16 13-04-2021 03:15:00 -0.9 C 94 % -1.74 C
17 13-04-2021 03:20:00 -0.9 C 94 % -1.74 C
18 13-04-2021 03:25:00 -1 C 94 % -1.84 C
19 13-04-2021 03:30:00 -1.1 C 94 % -1.94 C
20 13-04-2021 03:35:00 -1.1 C 94 % -1.94 C
21 13-04-2021 03:40:00 -1.1 C 94 % -1.94 C
22 13-04-2021 03:45:00 -1.1 C 94 % -1.94 C
23 13-04-2021 03:50:00 -1.1 C 94 % -1.94 C
24 13-04-2021 03:55:00 -1.2 C 94 % -2.04 C
25 13-04-2021 04:00:00 -1.2 C 94 % -2.04 C
Sensor: Nr:Datum:Temp:Feuchte:Taupunkt:
Aussen-T/F 26 13-04-2021 04:05:00 -1.2 C 94 % -2.04 C
27 13-04-2021 04:10:00 -1.2 C 95 % -1.9 C
28 13-04-2021 04:15:00 -1.2 C 95 % -1.9 C
29 13-04-2021 04:20:00 -1.2 C 95 % -1.9 C
30 13-04-2021 04:25:00 -1.3 C 95 % -2 C
31 13-04-2021 04:30:00 -1.3 C 95 % -2 C
32 13-04-2021 04:35:00 -1.3 C 95 % -2 C
33 13-04-2021 04:40:00 -1.3 C 95 % -2 C
34 13-04-2021 04:45:00 -1.3 C 95 % -2 C
35 13-04-2021 04:50:00 -1.3 C 95 % -2 C
36 13-04-2021 04:55:00 -1.3 C 95 % -2 C
37 13-04-2021 05:00:00 -1.3 C 95 % -2 C
38 13-04-2021 05:05:00 -1.3 C 95 % -2 C
39 13-04-2021 05:10:00 -1.3 C 95 % -2 C
40 13-04-2021 05:15:00 -1.3 C 95 % -2 C
41 13-04-2021 05:20:00 -1.3 C 95 % -2 C
42 13-04-2021 05:25:00 -1.4 C 95 % -2.1 C
43 13-04-2021 05:30:00 -1.4 C 95 % -2.1 C
44 13-04-2021 05:35:00 -1.4 C 95 % -2.1 C
45 13-04-2021 05:40:00 -1.4 C 95 % -2.1 C
46 13-04-2021 05:45:00 -1.4 C 95 % -2.1 C
47 13-04-2021 05:50:00 -1.4 C 95 % -2.1 C
48 13-04-2021 05:55:00 -1.3 C 95 % -2 C
49 13-04-2021 06:00:00 -1.4 C 95 % -2.1 C
50 13-04-2021 06:05:00 -1.4 C 95 % -2.1 C
Sensor: Nr:Datum:Temp:Feuchte:Taupunkt:
Aussen-T/F 51 13-04-2021 06:10:00 -1.4 C 95 % -2.1 C
52 13-04-2021 06:15:00 -1.4 C 95 % -2.1 C
53 13-04-2021 06:20:00 -1.4 C 95 % -2.1 C
54 13-04-2021 06:25:00 -1.3 C 95 % -2 C
55 13-04-2021 06:30:00 -1.3 C 95 % -2 C
56 13-04-2021 06:35:00 -1.3 C 95 % -2 C
57 13-04-2021 06:40:00 -1.4 C 95 % -2.1 C
58 13-04-2021 06:45:00 -1.4 C 95 % -2.1 C
59 13-04-2021 06:50:00 -1.4 C 95 % -2.1 C
60 13-04-2021 06:55:00 -1.5 C 95 % -2.19 C
61 13-04-2021 07:00:00 -1.5 C 95 % -2.19 C
62 13-04-2021 07:05:00 -1.5 C 95 % -2.19 C
63 13-04-2021 07:10:00 -1.4 C 95 % -2.1 C
64 13-04-2021 07:15:00 -1.4 C 95 % -2.1 C
65 13-04-2021 07:20:00 -1.3 C 95 % -2 C
66 13-04-2021 07:25:00 -1.3 C 96 % -1.85 C
67 13-04-2021 07:30:00 -1.2 C 96 % -1.75 C

Legende:
   Min
   Max


Maximal/Minimal-Werte vom 13.04.2021 - 13.04.2021

Sensor Min Max Avg
Temp
(Aussen-T/F)
-1.5 °C
13-04-2021  06:55:00
-0.3 °C
13-04-2021  02:00:00
-1.13 °C
Feuchte
(Aussen-T/F)
94 %
13-04-2021  02:00:00
96 %
13-04-2021  07:25:00
94.64 %
Taupunkt
(Aussen-T/F)
-2.19 C
13-04-2021  06:55:00
-1.15 C
13-04-2021  02:00:00
-1.85 C

Die Daten stammen von einer Davis Vantage Pro 2 Wetter-Station und werden unter Linux mit der Software wview2wettercgi und aufbereitet. Alle Angaben erfolgen ohne Gewähr für ihre Vollständigkeit oder Richtigkeit.
Kontakt: Rainer Krienke krienke@uni-koblenz.de . Meine Webseiten an der Uni Koblenz oder privat.
Version: $Revision: 0.78 $